Tracking 25703 objects as of 2-Jul-2022
HD Live streaming from Space Station
objects crossing your sky now

NOAA 16 DEB

Track NOAA 16 DEB now!
10-day predictions


NORAD ID: 41278
Int'l Code: 2000-055GE
Perigee: 768.6 km
Apogee: 819.0 km
Inclination: 98.9 °
Period: 100.6 minutes
Semi major axis: 7164 km
RCS: Unknown
Launch date: September 21, 2000
Source: United States (US)
Launch site: AIR FORCE WESTERN TEST RANGE (AFWTR)

Note: This is SATELLITE DEBRIS
aabbcc
Your satellite tracking list
Your tracking list is empty




NASA's NSSDC Master Catalog

Two Line Element Set (TLE):
1 41278U 00055GE  22182.60818800  .00003209  00000-0  12161-2 0  9995
2 41278  98.8605 307.4394 0035157 332.1399  27.7900 14.31525479339316
Source of the keplerian elements: AFSPC